TimeHST,TemperatureF,Dew PointF,Humidity,Sea Level PressureIn,VisibilityMPH,Wind Direction,Wind SpeedMPH,Gust SpeedMPH,PrecipitationIn,Events,Conditions,WindDirDegrees,DateUTC
12:53 AM,66.9,59.0,76,30.01,10.0,Calm,Calm,-,N/A,,Overcast,0,2014-02-26 10:53:00
1:53 AM,66.9,57.9,73,29.99,10.0,Calm,Calm,-,N/A,,Overcast,0,2014-02-26 11:53:00
2:53 AM,64.0,57.9,80,29.98,10.0,Calm,Calm,-,N/A,,Mostly Cloudy,0,2014-02-26 12:53:00
3:53 AM,64.0,57.9,80,29.97,10.0,Calm,Calm,-,N/A,,Mostly Cloudy,0,2014-02-26 13:53:00
4:53 AM,63.0,57.9,84,29.97,10.0,ENE,3.5,-,N/A,,Mostly Cloudy,60,2014-02-26 14:53:00
5:53 AM,63.0,57.0,81,29.98,10.0,Calm,Calm,-,N/A,,Mostly Cloudy,0,2014-02-26 15:53:00
6:53 AM,62.1,57.0,84,30.00,10.0,Calm,Calm,-,N/A,,Partly Cloudy,0,2014-02-26 16:53:00
7:53 AM,66.9,59.0,76,30.03,10.0,Calm,Calm,-,N/A,,Overcast,0,2014-02-26 17:53:00
8:53 AM,71.1,57.9,63,30.05,10.0,Calm,Calm,-,N/A,,Mostly Cloudy,0,2014-02-26 18:53:00
9:53 AM,75.9,55.0,48,30.07,10.0,Variable,4.6,-,N/A,,Mostly Cloudy,0,2014-02-26 19:53:00
10:53 AM,75.9,54.0,46,30.06,10.0,Variable,3.5,-,N/A,,Scattered Clouds,0,2014-02-26 20:53:00
11:53 AM,77.0,53.1,43,30.04,10.0,NW,8.1,-,N/A,,Overcast,310,2014-02-26 21:53:00
12:53 PM,78.1,54.0,43,30.02,10.0,Variable,4.6,-,N/A,,Overcast,0,2014-02-26 22:53:00
1:53 PM,75.9,55.9,50,29.99,10.0,NW,9.2,-,N/A,,Overcast,320,2014-02-26 23:53:00
2:53 PM,73.0,57.9,59,29.97,10.0,North,8.1,17.3,N/A,,Mostly Cloudy,10,2014-02-27 00:53:00
3:53 PM,73.9,59.0,59,29.99,10.0,North,12.7,21.9,N/A,,Partly Cloudy,10,2014-02-27 01:53:00
4:53 PM,72.0,60.1,66,30.00,10.0,NNE,9.2,21.9,N/A,,Mostly Cloudy,30,2014-02-27 02:53:00
5:53 PM,72.0,57.9,61,30.00,10.0,North,10.4,20.7,N/A,,Clear,10,2014-02-27 03:53:00
6:53 PM,69.1,57.9,68,30.03,10.0,Variable,5.8,-,N/A,,Clear,0,2014-02-27 04:53:00
7:53 PM,66.9,57.0,70,30.04,10.0,Calm,Calm,-,N/A,,Clear,0,2014-02-27 05:53:00
8:53 PM,66.0,57.0,73,30.05,10.0,Variable,3.5,-,N/A,,Clear,0,2014-02-27 06:53:00
9:53 PM,66.0,55.9,70,30.05,10.0,Variable,6.9,-,N/A,,Clear,0,2014-02-27 07:53:00
10:53 PM,66.0,54.0,65,30.06,10.0,Variable,5.8,-,N/A,,Clear,0,2014-02-27 08:53:00
11:53 PM,64.0,52.0,65,30.06,10.0,Calm,Calm,-,N/A,,Clear,0,2014-02-27 09:53:00